Location: *
(43.4667°N, 11.6833°E)
Time: 02:13:32
(UTC+00:00)

Spot 2 Rocket - Pass Details

Date: 19 July 2019
Orbit: 757 x 773 km, 98.6° (Epoch: 24 August)

Event Time Altitude Azimuth Distance (km) Brightness Sun altitude
Exits shadow 19:48:25 - 160° (SSE) 2,461 5.6 -9.6°
Reaches altitude 10° 19:48:48 10° 160° (SSE) 2,307 5.4 -9.6°
Maximum altitude 19:53:53 79° 74° (ENE) 790 3.5 -10.3°
Drops below altitude 10° 19:59:01 10° 349° (NNW) 2,328 6.9 -11.0°
Sets 20:01:21 0° 348° (NNW) 3,260 7.8 -11.3°
